Location: NJAA Observatory
(40.6819°N, 74.8979°W)
Time: 17:27:51
(UTC-04:00)

Iridium 56 - Visible Passes

Search period start: 25 June 2016 00:00
Search period end: 05 July 2016 00:00
Orbit: 776 x 779 km, 86.4° (Epoch: 25 June)

Date Brightness Start Highest point End Pass type
(mag) Time Alt. Az. Time Alt. Az. Time Alt. Az.
25 Jun 7.4 02:48:21 10° NNE 02:52:41 26° ENE 02:56:59 10° SE visible
25 Jun 6.3 04:28:44 10° NNW 04:33:26 35° W 04:38:06 10° SSW visible
26 Jun 8.0 02:16:02 10° NE 02:18:50 14° ENE 02:21:37 10° ESE visible
26 Jun 5.6 03:54:52 10° N 04:00:03 65° W 04:04:25 14° SSW visible
27 Jun 5.8 03:21:19 10° N 03:26:32 69° E 03:30:35 17° SSE visible
28 Jun 6.8 02:48:05 10° NNE 02:52:55 37° E 02:56:47 15° SE visible
28 Jun 6.8 04:29:15 10° NNW 04:33:24 24° W 04:37:13 11° SW visible
29 Jun 7.6 02:15:17 10° NNE 02:19:10 21° ENE 02:23:00 10° SE visible
29 Jun 6.0 03:55:09 10° NNW 04:00:06 44° W 04:03:26 19° SSW visible
30 Jun 8.1 01:43:46 10° NE 01:45:16 11° ENE 01:46:45 10° E visible
30 Jun 5.4 03:21:25 10° N 03:26:40 83° W 03:29:40 26° S visible
01 Jul 6.1 02:47:59 10° N 02:53:06 54° E 02:55:55 26° SSE visible
01 Jul 7.2 04:30:02 10° NW 04:33:19 17° W 04:36:22 11° WSW visible
02 Jul 7.1 02:14:54 10° NNE 02:19:26 29° E 02:22:12 19° SE visible
02 Jul 6.5 03:55:33 10° NNW 04:00:05 31° W 04:02:38 20° SW visible
03 Jul 7.8 01:42:23 10° NE 01:45:37 16° ENE 01:48:28 11° ESE visible
03 Jul 5.7 03:21:37 10° N 03:26:44 57° W 03:28:55 33° SSW visible
04 Jul 5.5 02:48:00 10° N 02:53:15 78° E 02:55:13 39° SSE visible
04 Jul 7.5 04:31:30 10° WNW 04:33:12 12° WNW 04:34:54 10° W visible
